SCP
0 0 0 0 0 0 0 0 0 0 0 0 0 0 0 0 0 0 0 0 0 0 0 0 0 0 0 0 0 0 0 0 0 0 0 0 0 0 0 0 0 0 0 0
0 0 0 0 0 0 0 0 0 0 0 0 0 0 0 0 0 0 0 0 0 0 0 0 0 0 0 0 0 0 0 0 0 0 0 0 0 0 0 0 0 0 0 0
0 0 0 0 0 0 0 0 0 0 0 0 0 0 0 0 0 0 0 0 0 0 0 0 0 0 0 0 0 0 0 0 0 0 0 0 0 0 0 0 0 0 0 0
0 0 0 0 0 0 0 0 0 0 0 0 0 0 0 0 0 0 0 0 0 0 0 0 0 0 0 0 0 0 0 0 0 0 0 0 0 0 0 0 0 0 0 0
0 0 0 0 0 0 0 0 0 0 0 0 0 0 0 0 0 0 0 0 0 0 0 0 0 0 0 0 0 0 0 0 0 0 0 0 0 0 0 0 0 0 0 0
0 0 0 0 0 0 0 0 0 0 0 0 0 0 0 0 0 0 0 0 0 0 0 0 0 0 0 0 0 0 0 0 0 0 0 0 0 0 0 0 0 0 0 0
0 0 0 0 0 0 0 0 0 0 0 0 0 0 0 0 0 0 0 0 0 0 0 0 0 0 0 0 0 0 0 0 0 0 0 0 0 0 0 0 0 0 0 0
0 0 0 0 0 0 0 0 0 0 0 0 0 0 0 0 0 0 0 0 0 0 0 0 0 0 0 0 0 0 0 0 0 0 0 0 0 0 0 0 0 0 0 0
0 0 0 0 0 0 0 0 0 0 0 0 0 0 0 0 0 0 0 0 0 0 0 0 0 0 0 0 0 0 0 0 0 0 0 0 0 0 0 0 0 0 0 0
0 0 0 0 0 0 0 0 0 0 0 0 0 0 0 0 0 0 0 0 0 0 0 0 0 0 0 0 0 0 0 0 0 0 0 0 0 0 0 0 0 0 0 0
0 0 0 0 0 0 0 0 0 0 0 0 0 0 0 0 0 0 0 0 0 0 0 0 0 0 0 0 0 0 0 0 0 0 0 0 0 0 0 0 0 0 0 0
0 0 0 0 0 0 0 0 0 0 0 0 0 0 0 0 0 0 0 0 0 0 0 0 0 0 0 0 0 0 0 0 0 0 0 0 0 0 0 0 0 0 0 0
0 0 0 0 0 0 0 0 0 0 0 0 0 0 0 0 0 0 0 0 0 0 0 0 0 0 0 0 0 0 0 0 0 0 0 0 0 0 0 0 0 0 0 0
0 0 0 0 0 0 0 0 0 0 0 0 0 0 0 0 0 0 0 0 0 0 0 0 0 0 0 0 0 0 0 0 0 0 0 0 0 0 0 0 0 0 0 0
0 0 0 0 0 0 0 0 0 0 0 0 0 0 0 0 0 0 0 0 0 0 0 0 0 0 0 0 0 0 0 0 0 0 0 0 0 0 0 0 0 0 0 0
0 0 0 0 0 0 0 0 0 0 0 0 0 0 0 0 0 0 0 0 0 0 0 0 0 0 0 0 0 0 0 0 0 0 0 0 0 0 0 0 0 0 0 0
0 0 0 0 0 0 0 0 0 0 0 0 0 0 0 0 0 0 0 0 0 0 0 0 0 0 0 0 0 0 0 0 0 0 0 0 0 0 0 0 0 0 0 0
0 0 0 0 0 0 0 0 0 0 0 0 0 0 0 0 0 0 0 0 0 0 0 0 0 0 0 0 0 0 0 0 0 0 0 0 0 0 0 0 0 0 0 0
0 0 0 0 0 0 0 0 0 0 0 0 0 0 0 0 0 0 0 0 0 0 0 0 0 0 0 0 0 0 0 0 0 0 0 0 0 0 0 0 0 0 0 0
0 0 0 0 0 0 0 0 0 0 0 0 0 0 0 0 0 0 0 0 0 0 0 0 0 0 0 0 0 0 0 0 0 0 0 0 0 0 0 0 0 0 0 0
0 0 0 0 0 0 0 0 0 0 0 0 0 0 0 0 0 0 0 0 0 0 0 0 0 0 0 0 0 0 0 0 0 0 0 0 0 0 0 0 0 0 0 0
0 0 0 0 0 0 0 0 0 0 0 0 0 0 0 0 0 0 0 0 0 0 0 0 0 0 0 0 0 0 0 0 0 0 0 0 0 0 0 0 0 0 0 0
0 0 0 0 0 0 0 0 0 0 0 0 0 0 0 0 0 0 0 0 0 0 0 0 0 0 0 0 0 0 0 0 0 0 0 0 0 0 0 0 0 0 0 0
0 0 0 0 0 0 0 0 0 0 0 0 0 0 0 0 0 0 0 0 0 0 0 0 0 0 0 0 0 0 0 0 0 0 0 0 0 0 0 0 0 0 0 0
0 0 0 0 0 0 0 0 0 0 0 0 0 0 0 0 0 0 0 0 0 0 0 0 0 0 0 0 0 0 0 0 0 0 0 0 0 0 0 0 0 0 0 0
0 0 0 0 0 0 0 0 0 0 0 0 0 0 0 0 0 0 0 0 0 0 0 0 0 0 0 0 0 0 0 0 0 0 0 0 0 0 0 0 0 0 0 0
Wind_Speed
3 0 6 11 9 10 5 3 1 2 1 2 2 3 5 6 4 4 4 5 7 7 5 6 8 9 8 8 8 8 7 5 4 3 3 3 2 2 2 2 4 4 4 4
4 8 16 14 9 4 4 2 1 1 0 2 2 2 4 6 7 6 7 7 8 7 7 9 8 7 8 8 8 8 7 6 5 3 3 3 3 2 2 2 3 4 4 4
7 12 10 4 2 3 3 3 4 4 3 4 2 2 1 2 3 5 6 6 7 11 11 11 10 8 9 9 9 9 8 7 6 5 3 2 3 3 2 1 1 2 3 4
6 6 4 4 2 3 1 3 5 5 4 2 2 2 4 2 3 6 7 7 7 9 10 10 10 9 10 10 9 8 7 7 6 5 4 4 3 2 2 2 2 2 2 3
6 4 3 2 2 3 4 3 4 5 5 3 3 1 6 1 4 6 8 9 9 10 12 12 11 11 10 10 9 8 7 7 6 6 6 5 4 3 2 2 2 1 1 1
6 4 3 3 3 3 9 6 5 5 5 4 2 0 6 4 6 6 8 10 11 11 12 11 10 9 8 9 8 8 8 7 7 7 7 7 7 5 4 3 2 1 1 0
5 5 3 1 1 2 4 5 5 7 6 3 3 1 8 8 7 9 11 11 11 12 11 11 11 10 10 11 10 9 10 8 8 8 7 7 7 6 5 4 3 2 1 1
2 7 4 1 4 4 2 7 6 2 3 3 2 4 9 8 6 8 10 11 12 12 12 13 14 13 12 12 12 11 11 9 8 8 7 6 7 5 4 4 4 4 3 3
3 5 4 1 1 4 1 2 6 7 2 1 3 6 8 3 3 7 9 10 12 13 14 14 14 13 12 12 12 13 12 9 9 8 7 7 7 6 6 5 4 3 3 3
5 2 4 2 5 4 3 4 6 5 4 2 3 4 6 5 6 8 11 12 13 13 13 14 13 13 12 12 10 10 11 11 9 9 8 7 7 7 6 5 5 5 4 4
3 3 4 4 2 1 2 3 4 4 5 6 3 8 9 11 10 11 13 14 14 14 14 14 13 12 11 9 10 10 10 9 8 9 7 7 7 7 6 6 6 6 5 5
2 6 0 3 3 1 2 3 5 4 2 3 4 9 7 11 11 11 13 13 12 13 13 13 11 10 9 10 11 11 11 10 10 9 8 8 7 7 7 6 7 6 6 6
3 6 3 6 7 4 1 2 4 5 4 3 3 8 5 5 7 9 11 11 11 10 10 9 9 11 11 11 11 11 11 11 9 9 9 8 7 8 8 7 7 6 6 6
4 4 6 6 8 5 3 2 2 5 3 3 5 7 6 5 6 8 9 10 9 9 10 10 10 10 11 11 11 11 11 10 10 9 9 9 9 9 9 8 7 7 7 7
5 3 2 5 5 4 4 4 2 2 6 6 6 6 8 7 7 7 7 7 8 8 10 12 12 10 10 10 10 10 10 10 10 9 10 10 9 8 8 8 8 7 7 8
4 3 0 3 3 3 3 4 1 1 1 2 4 6 6 2 1 0 3 7 8 9 11 11 11 11 12 12 12 11 11 10 9 10 11 10 8 8 8 8 8 7 7 7
2 4 2 4 4 2 3 4 2 3 4 1 1 4 3 5 4 1 1 4 6 7 7 10 11 13 13 14 14 14 13 10 10 11 10 9 9 9 9 9 8 8 8 7
5 4 3 1 3 2 6 2 6 9 6 5 2 3 4 5 2 3 3 2 3 2 3 5 6 8 9 10 10 11 9 10 11 10 10 9 10 10 9 8 9 9 7 7
4 6 3 2 1 4 2 2 0 4 3 5 4 6 6 4 6 8 8 6 4 3 1 1 3 4 5 6 7 7 8 9 9 10 10 10 10 10 9 9 10 8 7 7
5 4 5 3 2 4 5 4 1 7 2 4 3 5 6 7 5 4 8 7 7 6 4 3 2 3 1 3 4 6 7 7 10 11 11 10 9 10 10 11 9 7 7 8
3 3 2 3 3 5 4 5 2 4 5 3 0 2 4 4 3 1 4 6 7 7 6 5 5 4 3 2 2 2 3 7 9 7 6 7 8 9 9 8 7 6 7 7
4 3 2 3 2 7 3 1 4 7 4 4 2 2 3 4 4 3 5 7 8 9 10 8 7 7 6 6 5 4 2 5 3 2 3 5 6 6 6 6 6 6 6 7
5 7 6 7 7 5 3 4 4 5 5 4 4 4 6 6 5 5 6 6 7 9 9 8 8 9 9 9 7 6 6 6 4 3 2 2 3 3 3 5 6 5 5 6
4 4 4 2 2 1 1 1 3 4 4 4 5 6 7 8 7 6 6 6 7 7 7 7 8 9 8 8 8 6 6 6 6 5 4 4 4 4 3 3 4 5 6 7
5 5 5 3 2 2 1 2 4 6 6 8 8 8 9 9 7 6 5 5 5 5 5 6 6 6 6 6 6 6 6 6 6 5 5 5 4 4 5 5 5 6 7 9
3 7 9 8 10 8 6 5 6 8 7 9 10 9 7 8 7 6 5 4 4 4 5 5 6 5 5 6 6 6 5 5 4 4 4 4 4 4 5 6 7 10 12 15
Wind_Direction
278 350 261 255 230 214 213 180 210 253 186 86 131 178 194 197 203 204 198 194 178 180 173 162 156 150 146 142 140 141 140 146 136 121 118 121 136 153 156 163 148 138 121 103
334 273 257 258 256 217 179 136 137 313 140 105 133 184 187 195 204 200 196 194 180 169 170 164 162 164 160 158 156 154 157 159 156 147 149 155 152 160 161 154 147 151 137 129
228 256 273 294 244 138 116 157 179 180 106 51 81 356 250 220 209 210 204 188 176 175 177 174 174 178 167 168 171 169 170 166 165 153 127 97 78 74 79 108 154 185 163 148
255 265 323 348 323 105 169 197 155 139 111 11 42 315 288 212 218 208 200 192 189 182 181 183 182 178 178 181 177 171 172 171 169 155 146 145 145 150 176 175 184 203 186 171
274 296 325 313 249 145 167 128 84 95 106 67 19 24 293 199 208 214 203 196 194 188 187 189 187 187 188 184 179 177 174 177 174 162 154 142 139 150 149 137 146 183 262 214
262 269 241 237 243 143 127 85 63 54 67 41 314 54 284 240 213 201 196 194 191 189 191 193 191 188 190 186 183 180 176 182 176 168 162 157 156 157 148 152 167 210 299 298
306 300 281 205 78 48 101 84 30 8 19 286 282 267 256 244 215 196 192 194 193 190 190 191 191 191 193 190 188 184 180 184 179 171 170 169 166 164 167 175 181 181 187 185
260 289 271 218 175 187 195 132 144 190 222 271 300 261 264 261 223 197 188 186 188 192 194 195 197 195 196 193 190 186 184 184 179 175 177 174 166 159 165 170 169 177 187 198
192 262 290 233 180 141 143 158 160 132 126 95 282 290 302 295 182 183 185 184 192 196 197 199 199 198 196 192 190 187 183 181 180 179 174 172 169 165 169 173 173 178 189 189
169 239 310 327 42 22 151 145 87 98 142 205 270 264 246 240 209 190 187 193 198 196 198 199 199 199 197 192 188 182 179 179 179 176 175 178 180 179 178 177 185 191 197 192
134 141 322 19 50 294 28 52 91 112 151 154 219 256 223 211 209 197 198 198 197 197 197 198 199 197 191 181 175 175 175 172 175 178 178 174 183 186 184 188 200 202 205 204
146 118 90 293 279 261 136 144 137 139 229 172 186 262 249 202 209 200 201 202 200 199 198 196 191 184 178 177 176 176 176 178 181 178 176 179 184 184 187 198 207 206 209 211
125 107 74 345 333 339 13 175 156 139 132 169 185 262 277 214 210 207 202 201 199 195 189 184 178 178 179 179 178 179 181 184 181 176 177 181 186 188 196 204 207 206 207 210
109 114 152 197 230 233 252 251 191 132 152 220 223 254 279 247 214 214 205 196 185 184 180 176 178 182 183 182 181 183 188 187 182 179 181 188 195 197 202 205 206 207 204 206
105 135 208 228 229 201 222 237 226 196 189 194 256 266 259 243 216 210 197 180 168 171 175 179 181 185 185 185 187 189 192 190 185 182 190 199 200 200 202 205 208 209 209 212
101 149 332 305 271 246 277 279 289 324 304 256 279 275 272 233 64 49 170 166 171 181 186 186 185 184 187 190 192 192 195 194 185 188 199 200 196 199 203 206 207 210 215 218
125 133 119 276 292 36 288 250 186 77 11 20 186 263 340 52 54 2 219 166 175 182 185 190 192 192 194 195 191 193 197 189 186 194 198 195 194 200 206 208 207 212 216 216
140 128 138 215 19 263 256 286 116 102 55 21 24 357 51 87 106 36 25 78 103 138 166 191 204 209 207 200 196 196 187 184 190 196 198 196 194 202 205 205 210 215 213 213
125 132 127 128 186 269 300 343 124 123 54 4 7 26 36 37 48 27 10 25 53 63 85 194 207 208 207 210 207 190 190 189 192 200 205 203 198 201 203 208 216 215 212 218
46 89 119 130 161 234 244 280 215 102 72 319 352 29 27 37 52 351 346 3 23 29 29 32 33 50 37 246 197 185 199 197 207 211 210 204 199 202 207 213 216 213 212 222
6 29 113 149 188 254 261 299 54 122 218 239 55 64 64 87 152 232 358 17 13 23 26 29 44 45 5 353 91 152 200 223 229 225 214 208 207 210 213 215 215 213 216 223
174 156 176 125 181 245 235 7 177 187 176 173 156 158 125 120 114 69 44 39 32 31 29 33 43 34 20 28 54 50 331 283 273 227 220 225 226 226 222 218 222 218 217 226
185 180 175 179 211 239 186 197 194 148 151 170 179 180 141 115 95 78 61 50 41 38 33 32 39 34 26 29 42 36 358 3 18 20 338 297 282 262 246 226 229 230 224 230
234 152 128 158 243 218 179 140 141 142 144 148 138 130 115 108 99 83 69 56 46 38 34 33 40 40 27 22 34 28 15 27 36 24 2 347 331 308 288 263 244 240 238 240
221 147 131 142 168 92 308 155 133 124 113 107 102 100 105 104 96 88 74 57 47 39 31 36 41 41 29 25 25 19 24 32 30 17 3 348 332 314 303 288 266 255 248 244
222 174 168 190 186 166 189 180 138 123 122 115 106 90 85 94 94 84 71 57 51 42 33 32 31 34 23 21 16 4 8 28 32 7 346 331 322 313 306 302 299 281 269 269